Home   Weather   Kolding   Past weeks

Flag for Denmark Past Weather in Kolding, Denmark — Yesterday and Last 2 Weeks

Now
43 °F

Partly sunny.


Feels Like: 37 °F
Forecast: 38 / 43 °F
Wind: 10 mph from West

Location: Vamdrup

Current Time: Dec 5, 2016 at 11:48:11 am

Latest Report: Dec 5, 2016 at 10:50 am


Visibility: N/A

Pressure: 30.27 "Hg

Humidity: 81%

Dew Point: 37 °F

Location of KoldingLocation

Past Weather in Kolding — Graph

°F

Kolding Temperature Yesterday

Maximum temperature yesterday: 45 °F (at 12:20 pm)
Minimum temperature yesterday: 32 °F (at 12:50 am)
Average temperature yesterday: 38 °F

High & Low Weather Summary for the Past Weeks

 TemperatureHumidityPressure
High54 °F (Nov 22, 1:50 pm)100% (Nov 21, 11:20 am)30.54 "Hg (Nov 21, 11:20 am)
Low21 °F (Dec 3, 6:20 am)53% (Nov 27, 12:20 pm)29.15 "Hg (Nov 20, 5:50 pm)
Average40 °F89%30.12 "Hg
* Reported Nov 20 9:50 am — Dec 5 9:50 am, Kolding, Weather by CustomWeather, © 2016

Note: Actual official high and low records may vary slightly from our data, if they occured in-between our weather recording intervals... More about our weather records

Advertising

Kolding Weather History for the Previous 24 Hours

Scroll right to see more
 ConditionsComfort  
Time TempWeatherWind HumidityBarometerVisibility
9:50 am
Mon, Dec 5
41 °FPartly sunny.10 mph93%30.27 "HgN/A
8:50 am39 °FPartly sunny.10 mph93%30.27 "HgN/A
8:20 am39 °FPassing clouds.10 mph93%30.27 "HgN/A
7:50 am37 °FPassing clouds.9 mph100%30.27 "HgN/A
7:20 am39 °FChilly.10 mph93%30.27 "HgN/A
6:50 am39 °FChilly.10 mph93%30.27 "HgN/A
6:20 am37 °FChilly.8 mph100%30.27 "HgN/A
5:50 am39 °FChilly.7 mph93%30.30 "HgN/A
5:20 am39 °FChilly.7 mph93%30.30 "HgN/A
4:50 am37 °FChilly.7 mph100%30.30 "HgN/A
4:20 am39 °FChilly.7 mph93%30.30 "HgN/A
3:50 am39 °FChilly.8 mph93%30.30 "HgN/A
3:20 am39 °FChilly.9 mph93%30.33 "HgN/A
2:50 am39 °FChilly.9 mph93%30.33 "HgN/A
2:20 am39 °FChilly.8 mph93%30.33 "HgN/A
1:50 am39 °FChilly.9 mph100%30.33 "HgN/A
1:20 am39 °FChilly.7 mph93%30.33 "HgN/A
12:50 am37 °FChilly.7 mph100%30.33 "HgN/A
12:20 am37 °FChilly.7 mph100%30.33 "HgN/A
11:50 pm
Sun, Dec 4
36 °FChilly.8 mph100%30.33 "HgN/A
11:20 pm37 °FChilly.7 mph100%30.36 "HgN/A
10:50 pm36 °FChilly.7 mph100%30.36 "HgN/A
10:20 pm36 °FChilly.7 mph100%30.36 "HgN/A
9:50 pm37 °FChilly.7 mph93%30.36 "HgN/A
9:20 pm39 °FChilly.8 mph100%30.36 "HgN/A
8:50 pm39 °FChilly.7 mph93%30.36 "HgN/A
8:20 pm39 °FChilly.6 mph93%30.36 "HgN/A
7:50 pm39 °FChilly.5 mph93%30.36 "HgN/A
7:20 pm39 °FChilly.6 mph93%30.36 "HgN/A
6:50 pm39 °FChilly.7 mph93%30.36 "HgN/A
6:20 pm39 °FChilly.7 mph93%30.36 "HgN/A
5:50 pm39 °FChilly.8 mph100%30.36 "HgN/A
5:20 pm41 °FQuite cool.6 mph93%30.36 "HgN/A
4:50 pm41 °FQuite cool.8 mph93%30.36 "HgN/A
4:20 pm43 °FQuite cool.8 mph93%30.33 "HgN/A
3:50 pm43 °FQuite cool.10 mph93%30.33 "HgN/A
3:20 pm43 °FQuite cool.10 mph93%30.33 "HgN/A
2:50 pm43 °FQuite cool.10 mph93%30.33 "HgN/A
2:20 pm43 °FQuite cool.8 mph93%30.33 "HgN/A
1:50 pm45 °FQuite cool.9 mph87%30.33 "HgN/A
1:20 pm43 °FQuite cool.8 mph93%30.36 "HgN/A
12:50 pm43 °FQuite cool.7 mph93%30.36 "HgN/A
12:20 pm45 °FQuite cool.9 mph87%30.36 "HgN/A
11:50 am43 °FQuite cool.8 mph93%30.36 "HgN/A
11:20 am43 °FQuite cool.7 mph87%30.36 "HgN/A
Weather by CustomWeather, © 2016

See weather overviewHow to use our weather pages